Погода в Сухоногове

Россия / Костромская область     57°34′50″N   41°02′43″E
темп.,
°C
ветер,
м/с
пор.,
м/с
влажн.,
%
обл.,
%
осадки,
мм/ч
давл.,
гПа
погр.,
м
9 мая, вс
вс900:00+9юв51394100 2.6 1003547
03:00+10ююв61492100 3.5 1002658
06:00+10ююв3996100 1.1 1002471
09:00+9сз5795100 4.4 1004380
12:00+8ссз4793100 1.8 1007483
15:00+6ссз61194100 2.7 1010533
18:00+6ссз71491100 0.5 1013846
21:00+6с51383100 0.8 1015806
10 мая, пн
пн1000:00+5ссз5127999 0.0 1018452
03:00+2ссз411855 0.0 1021280
06:00+3ссз4128397 0.0 1024437
09:00+8с69613 0.0 10261036
12:00+11с56460 0.0 10271388
15:00+13с45424 0.0 10271564
18:00+12ссв35560 0.0 1028300
21:00+7ссв22670 0.0 102911
11 мая, вт
вт1100:00+5св22715 0.0 103013
03:00+4св22765 0.0 103014
06:00+6всв24775 0.0 1031105
09:00+12всв35595 0.0 1031559
12:00+16всв35475 0.0 1030931
15:00+18всв34426 0.0 10291063
18:00+17всв24605 0.0 1029159
21:00+11вюв33681 0.0 102927
12 мая, ср
ср1200:00+9в34710 0.0 103044
03:00+9в35800 0.0 102965
06:00+10всв388321 0.0 1029183
09:00+16в577187 0.0 1029409
12:00+21вюв576184 0.0 10281040
15:00+22юв57587 0.2 10271497
18:00+19в237284 0.4 102675
21:00+16вюв3483100 0.4 102551
13 мая, чт
чт1300:00+14вюв379082 0.0 1025106
03:00+12вюв379299 0.1 1025135
06:00+14вюв4118661 0.0 1025342
09:00+17юв51074100 0.0 1024562
12:00+20юв7105675 0.0 10241062
15:00+22юв6105799 0.0 10231450
18:00+19юв4117143 0.0 1022435
21:00+16юв5137596 0.0 1022396